| time (UTC) | temp C | wind direction | speed KPH | gust KPH | rain 1hr cm | rain 24hr cm | rain mn cm | humidity % | barometer mb |
| 20260502151553 | 12 | 283 | 11.3 | 20.9 | 0.00 | 0.00 | 0.00 | 51 | 1006.1 |
| 20260502123037 | 7 | 264 | 9.7 | 19.3 | 0.00 | 0.00 | 0.00 | 59 | 1008.0 |
| 20260502121553 | 7 | 223 | 9.7 | 17.7 | 0.00 | 0.00 | 0.00 | 60 | 1008.0 |
| 20260502114520 | 7 | 206 | 8.0 | 16.1 | 0.00 | 0.00 | 0.00 | 60 | 1008.6 |
| 20260502113024 | 7 | 200 | 9.7 | 16.1 | 0.00 | 0.00 | 0.00 | 58 | 1008.9 |
| 20260502111527 | 8 | 254 | 9.7 | 20.9 | 0.00 | 0.00 | 0.00 | 56 | 1008.8 |
| 20260502110040 | 8 | 252 | 6.4 | 24.1 | 0.00 | 0.00 | 0.00 | 55 | 1009.4 |
| 20260502104553 | 8 | 227 | 6.4 | 17.7 | 0.00 | 0.00 | 0.00 | 56 | 1009.4 |
| 20260502103114 | 7 | 242 | 8.0 | 19.3 | 0.00 | 0.00 | 0.00 | 57 | 1009.4 |
| 20260502101502 | 7 | 259 | 6.4 | 16.1 | 0.00 | 0.00 | 0.00 | 58 | 1009.6 |
| 20260502091525 | 7 | 224 | 6.4 | 16.1 | 0.00 | 0.00 | 0.00 | 58 | 1010.0 |
| 20260502070027 | 7 | 221 | 6.4 | 14.5 | 0.00 | 0.00 | 0.00 | 56 | 1011.3 |
| 20260502064528 | 7 | 221 | 4.8 | 14.5 | 0.00 | 0.00 | 0.00 | 55 | 1011.6 |
| 20260502063041 | 8 | 233 | 8.0 | 16.1 | 0.00 | 0.00 | 0.00 | 54 | 1011.7 |
| 20260502061545 | 8 | 241 | 6.4 | 12.9 | 0.00 | 0.00 | 0.00 | 54 | 1011.7 |
| 20260502060046 | 8 | 247 | 4.8 | 12.9 | 0.00 | 0.00 | 0.00 | 53 | 1011.8 |
| 20260502054559 | 8 | 266 | 6.4 | 14.5 | 0.00 | 0.00 | 0.00 | 51 | 1011.9 |
| 20260502053009 | 8 | 229 | 6.4 | 19.3 | 0.00 | 0.00 | 0.00 | 51 | 1012.1 |
| 20260502051529 | 9 | 228 | 4.8 | 16.1 | 0.00 | 0.00 | 0.00 | 50 | 1012.2 |
| 20260502050017 | 9 | 243 | 8.0 | 14.5 | 0.00 | 0.00 | 0.00 | 50 | 1012.2 |
| 20260502044530 | 9 | 219 | 8.0 | 12.9 | 0.00 | 0.00 | 0.00 | 49 | 1012.4 |
| 20260502043033 | 10 | 223 | 6.4 | 19.3 | 0.00 | 0.00 | 0.00 | 47 | 1012.5 |
| 20260502041536 | 10 | 256 | 8.0 | 12.9 | 0.00 | 0.00 | 0.00 | 46 | 1012.6 |
| 20260502040049 | 10 | 246 | 4.8 | 12.9 | 0.00 | 0.00 | 0.00 | 45 | 1012.7 |
| 20260502034602 | 10 | 225 | 4.8 | 11.3 | 0.00 | 0.00 | 0.00 | 44 | 1012.8 |
| 20260502033014 | 10 | 250 | 6.4 | 12.9 | 0.00 | 0.00 | 0.00 | 43 | 1012.8 |
| 20260502031515 | 10 | 242 | 0.0 | 6.4 | 0.00 | 0.00 | 0.00 | 43 | 1012.8 |
| 20260502030018 | 10 | 263 | 1.6 | 6.4 | 0.00 | 0.00 | 0.00 | 41 | 1012.8 |
| 20260502024533 | 11 | 256 | 3.2 | 8.0 | 0.00 | 0.00 | 0.00 | 40 | 1012.7 |
| 20260502023036 | 11 | 276 | 1.6 | 6.4 | 0.00 | 0.00 | 0.00 | 38 | 1012.7 |
| 20260502021549 | 12 | 290 | 3.2 | 11.3 | 0.00 | 0.00 | 0.00 | 36 | 1012.6 |
| 20260502020116 | 13 | 287 | 1.6 | 8.0 | 0.00 | 0.00 | 0.00 | 35 | 1012.5 |
| 20260502014526 | 14 | 285 | 3.2 | 9.7 | 0.00 | 0.00 | 0.00 | 33 | 1012.5 |
| 20260502013020 | 15 | 299 | 8.0 | 14.5 | 0.00 | 0.00 | 0.00 | 32 | 1012.5 |
| 20260502011528 | 16 | 308 | 11.3 | 20.9 | 0.00 | 0.00 | 0.00 | 31 | 1012.6 |
| 20260502010025 | 17 | 249 | 0.0 | 8.0 | 0.00 | 0.00 | 0.00 | 32 | 1012.6 |
| 20260502004529 | 17 | 298 | 3.2 | 11.3 | 0.00 | 0.00 | 0.00 | 31 | 1012.7 |
| 20260502003034 | 17 | 277 | 3.2 | 17.7 | 0.00 | 0.00 | 0.00 | 32 | 1012.7 |
| 20260502001536 | 17 | 203 | 6.4 | 17.7 | 0.00 | 0.00 | 0.00 | 31 | 1012.8 |
| 20260502000047 | 16 | 235 | 8.0 | 19.3 | 0.00 | 0.00 | 0.00 | 31 | 1013.0 |
| 20260501234601 | 17 | 254 | 11.3 | 24.1 | 0.00 | 0.00 | 0.00 | 31 | 1013.0 |
| 20260501233010 | 17 | 229 | 4.8 | 12.9 | 0.00 | 0.00 | 0.00 | 32 | 1013.2 |
| 20260501231535 | 16 | 262 | 6.4 | 19.3 | 0.00 | 0.00 | 0.00 | 32 | 1013.3 |
| 20260501230036 | 17 | 200 | 6.4 | 24.1 | 0.00 | 0.00 | 0.00 | 32 | 1013.3 |
| 20260501224542 | 16 | 235 | 11.3 | 19.3 | 0.00 | 0.00 | 0.00 | 32 | 1013.4 |
| 20260501223045 | 16 | 249 | 8.0 | 25.7 | 0.00 | 0.00 | 0.00 | 33 | 1013.5 |
| 20260501221559 | 16 | 264 | 8.0 | 17.7 | 0.00 | 0.00 | 0.00 | 32 | 1013.6 |
| 20260501220013 | 16 | 199 | 8.0 | 16.1 | 0.00 | 0.00 | 0.00 | 33 | 1013.7 |
| 20260501214523 | 16 | 202 | 12.9 | 22.5 | 0.00 | 0.00 | 0.00 | 33 | 1013.9 |
| 20260501213016 | 16 | 193 | 11.3 | 25.7 | 0.00 | 0.00 | 0.00 | 33 | 1014.0 |
| 20260501211522 | 15 | 196 | 11.3 | 20.9 | 0.00 | 0.00 | 0.00 | 35 | 1014.4 |
| 20260501210024 | 16 | 233 | 1.6 | 12.9 | 0.00 | 0.00 | 0.00 | 34 | 1014.4 |
| 20260501204534 | 17 | 190 | 6.4 | 19.3 | 0.00 | 0.00 | 0.00 | 34 | 1014.6 |
| 20260501203037 | 16 | 233 | 9.7 | 19.3 | 0.00 | 0.00 | 0.00 | 35 | 1014.7 |
| 20260501201552 | 16 | 240 | 4.8 | 19.3 | 0.00 | 0.00 | 0.00 | 36 | 1014.8 |
| 20260501200052 | 16 | 217 | 6.4 | 14.5 | 0.00 | 0.00 | 0.00 | 36 | 1014.9 |
| 20260501194557 | 15 | 210 | 3.2 | 9.7 | 0.00 | 0.00 | 0.00 | 36 | 1014.9 |
| 20260501193059 | 16 | 293 | 3.2 | 11.3 | 0.00 | 0.00 | 0.00 | 35 | 1014.9 |
| 20260501191502 | 15 | 294 | 3.2 | 12.9 | 0.00 | 0.00 | 0.00 | 38 | 1014.9 |
| 20260501190004 | 15 | 324 | 11.3 | 20.9 | 0.00 | 0.00 | 0.00 | 37 | 1015.1 |
| 20260501184506 | 14 | 351 | 1.6 | 14.5 | 0.00 | 0.00 | 0.00 | 38 | 1015.2 |
| 20260501183012 | 15 | 6 | 1.6 | 16.1 | 0.00 | 0.00 | 0.00 | 38 | 1015.4 |
| 20260501181520 | 15 | 63 | 1.6 | 9.7 | 0.00 | 0.00 | 0.00 | 40 | 1015.6 |
| 20260501180034 | 14 | 59 | 3.2 | 14.5 | 0.00 | 0.00 | 0.00 | 41 | 1015.7 |
| 20260501174540 | 13 | 326 | 11.3 | 24.1 | 0.00 | 0.00 | 0.00 | 41 | 1016.0 |
| 20260501173100 | 13 | 302 | 12.9 | 17.7 | 0.00 | 0.00 | 0.00 | 41 | 1016.0 |
| 20260501171554 | 13 | 356 | 6.4 | 14.5 | 0.00 | 0.00 | 0.00 | 42 | 1016.0 |
| 20260501170058 | 13 | 288 | 4.8 | 16.1 | 0.00 | 0.00 | 0.00 | 43 | 1016.1 |
| 20260501164510 | 13 | 349 | 3.2 | 12.9 | 0.00 | 0.00 | 0.00 | 42 | 1016.0 |
| 20260501163018 | 13 | 85 | 9.7 | 14.5 | 0.00 | 0.00 | 0.00 | 44 | 1016.0 |
| 20260501161515 | 12 | 345 | 1.6 | 11.3 | 0.00 | 0.00 | 0.00 | 46 | 1016.0 |
| 20260501160030 | 12 | 325 | 1.6 | 14.5 | 0.00 | 0.00 | 0.00 | 45 | 1016.0 |
| 20260501154536 | 12 | 359 | 1.6 | 14.5 | 0.00 | 0.00 | 0.00 | 45 | 1016.1 |
| 20260501153034 | 11 | 2 | 3.2 | 14.5 | 0.00 | 0.00 | 0.00 | 47 | 1016.2 |